| time (UTC) | temp C | wind direction | speed KPH | gust KPH | rain 1hr cm | rain 24hr cm | rain mn cm | humidity % | barometer mb |
| 20260508110050 | 5 | 235 | 4.8 | 11.3 | 0.00 | 0.00 | 0.00 | 81 | 1012.9 |
| 20260508105550 | 5 | 247 | 3.2 | 8.0 | 0.00 | 0.00 | 0.00 | 81 | 1012.9 |
| 20260508105050 | 6 | 247 | 3.2 | 8.0 | 0.00 | 0.00 | 0.00 | 82 | 1012.9 |
| 20260508104549 | 6 | 248 | 1.6 | 11.3 | 0.00 | 0.00 | 0.00 | 81 | 1012.9 |
| 20260508104048 | 6 | 246 | 3.2 | 14.5 | 0.00 | 0.00 | 0.00 | 82 | 1012.7 |
| 20260508103547 | 6 | 257 | 3.2 | 12.9 | 0.00 | 0.00 | 0.00 | 82 | 1012.7 |
| 20260508103049 | 6 | 223 | 3.2 | 8.0 | 0.00 | 0.00 | 0.00 | 82 | 1012.7 |
| 20260508102546 | 6 | 232 | 3.2 | 8.0 | 0.00 | 0.00 | 0.00 | 82 | 1012.7 |
| 20260508102045 | 6 | 232 | 0.0 | 8.0 | 0.00 | 0.00 | 0.00 | 81 | 1012.7 |
| 20260508101544 | 6 | 232 | 1.6 | 4.8 | 0.00 | 0.00 | 0.00 | 80 | 1013.1 |
| 20260508101043 | 6 | 232 | 1.6 | 4.8 | 0.00 | 0.00 | 0.00 | 80 | 1013.0 |
| 20260508100547 | 6 | 232 | 0.0 | 4.8 | 0.00 | 0.00 | 0.00 | 79 | 1012.9 |
| 20260508100043 | 6 | 232 | 1.6 | 8.0 | 0.00 | 0.00 | 0.00 | 79 | 1012.9 |
| 20260508095543 | 6 | 232 | 0.0 | 8.0 | 0.00 | 0.00 | 0.00 | 78 | 1012.7 |
| 20260508095042 | 6 | 233 | 3.2 | 8.0 | 0.00 | 0.00 | 0.00 | 78 | 1012.8 |
| 20260508094604 | 6 | 233 | 3.2 | 8.0 | 0.00 | 0.00 | 0.00 | 77 | 1012.9 |
| 20260508094045 | 7 | 260 | 3.2 | 11.3 | 0.00 | 0.00 | 0.00 | 77 | 1013.0 |
| 20260508093542 | 7 | 265 | 3.2 | 6.4 | 0.00 | 0.00 | 0.00 | 77 | 1013.1 |
| 20260508093041 | 7 | 265 | 0.0 | 6.4 | 0.00 | 0.00 | 0.00 | 77 | 1013.2 |
| 20260508092542 | 7 | 265 | 3.2 | 6.4 | 0.00 | 0.00 | 0.00 | 77 | 1013.0 |
| 20260508092040 | 7 | 265 | 1.6 | 6.4 | 0.00 | 0.00 | 0.00 | 77 | 1013.0 |
| 20260508091543 | 7 | 265 | 1.6 | 6.4 | 0.00 | 0.00 | 0.00 | 77 | 1013.1 |
| 20260508091041 | 7 | 265 | 1.6 | 9.7 | 0.00 | 0.00 | 0.00 | 76 | 1013.0 |
| 20260508090541 | 7 | 265 | 1.6 | 9.7 | 0.00 | 0.00 | 0.00 | 76 | 1012.9 |
| 20260508090048 | 7 | 259 | 3.2 | 8.0 | 0.00 | 0.00 | 0.00 | 76 | 1012.9 |
| 20260508085540 | 7 | 266 | 3.2 | 14.5 | 0.00 | 0.00 | 0.00 | 76 | 1012.9 |
| 20260508085041 | 7 | 260 | 6.4 | 14.5 | 0.00 | 0.00 | 0.00 | 75 | 1012.9 |
| 20260508084539 | 7 | 262 | 4.8 | 11.3 | 0.00 | 0.00 | 0.00 | 76 | 1012.8 |
| 20260508084039 | 7 | 275 | 1.6 | 6.4 | 0.00 | 0.00 | 0.00 | 75 | 1012.8 |
| 20260508083542 | 6 | 274 | 0.0 | 4.8 | 0.00 | 0.00 | 0.00 | 75 | 1013.0 |
| 20260508083038 | 6 | 274 | 0.0 | 11.3 | 0.00 | 0.00 | 0.00 | 75 | 1012.9 |
| 20260508082538 | 6 | 279 | 3.2 | 16.1 | 0.00 | 0.00 | 0.00 | 75 | 1013.0 |
| 20260508082037 | 6 | 264 | 1.6 | 4.8 | 0.00 | 0.00 | 0.00 | 75 | 1012.9 |
| 20260508081557 | 6 | 264 | 3.2 | 6.4 | 0.00 | 0.00 | 0.00 | 75 | 1013.1 |
| 20260508081035 | 6 | 264 | 1.6 | 6.4 | 0.00 | 0.00 | 0.00 | 74 | 1013.2 |
| 20260508080535 | 6 | 264 | 3.2 | 9.7 | 0.00 | 0.00 | 0.00 | 74 | 1013.3 |
| 20260508080041 | 6 | 264 | 3.2 | 9.7 | 0.00 | 0.00 | 0.00 | 73 | 1013.3 |
| 20260508075535 | 6 | 264 | 3.2 | 11.3 | 0.00 | 0.00 | 0.00 | 73 | 1013.3 |
| 20260508075036 | 6 | 264 | 4.8 | 11.3 | 0.00 | 0.00 | 0.00 | 73 | 1013.3 |
| 20260508074534 | 6 | 264 | 4.8 | 11.3 | 0.00 | 0.00 | 0.00 | 73 | 1013.3 |
| 20260508074034 | 6 | 264 | 3.2 | 9.7 | 0.00 | 0.00 | 0.00 | 74 | 1013.3 |
| 20260508073534 | 6 | 264 | 3.2 | 6.4 | 0.00 | 0.00 | 0.00 | 74 | 1013.2 |
| 20260508073041 | 6 | 264 | 3.2 | 9.7 | 0.00 | 0.00 | 0.00 | 73 | 1013.1 |
| 20260508072533 | 6 | 264 | 3.2 | 9.7 | 0.00 | 0.00 | 0.00 | 73 | 1013.2 |
| 20260508072034 | 6 | 264 | 1.6 | 6.4 | 0.00 | 0.00 | 0.00 | 73 | 1013.2 |
| 20260508071541 | 6 | 264 | 4.8 | 6.4 | 0.00 | 0.00 | 0.00 | 73 | 1013.3 |
| 20260508071032 | 6 | 264 | 1.6 | 6.4 | 0.00 | 0.00 | 0.00 | 73 | 1013.3 |
| 20260508070533 | 6 | 264 | 3.2 | 6.4 | 0.00 | 0.00 | 0.00 | 74 | 1013.2 |
| 20260508070032 | 6 | 264 | 3.2 | 6.4 | 0.00 | 0.00 | 0.00 | 74 | 1013.2 |
| 20260508065533 | 6 | 264 | 1.6 | 8.0 | 0.00 | 0.00 | 0.00 | 74 | 1013.3 |
| 20260508065031 | 6 | 282 | 3.2 | 11.3 | 0.00 | 0.00 | 0.00 | 74 | 1013.4 |
| 20260508064532 | 6 | 278 | 4.8 | 11.3 | 0.00 | 0.00 | 0.00 | 74 | 1013.5 |
| 20260508064031 | 6 | 263 | 4.8 | 9.7 | 0.00 | 0.00 | 0.00 | 74 | 1013.5 |
| 20260508063531 | 6 | 265 | 3.2 | 9.7 | 0.00 | 0.00 | 0.00 | 73 | 1013.3 |
| 20260508063044 | 6 | 263 | 3.2 | 9.7 | 0.00 | 0.00 | 0.00 | 74 | 1013.2 |
| 20260508062532 | 6 | 265 | 1.6 | 4.8 | 0.00 | 0.00 | 0.00 | 74 | 1013.2 |
| 20260508062029 | 6 | 265 | 0.0 | 3.2 | 0.00 | 0.00 | 0.00 | 75 | 1013.2 |
| 20260508061529 | 6 | 265 | 0.0 | 3.2 | 0.00 | 0.00 | 0.00 | 75 | 1013.1 |
| 20260508061028 | 6 | 265 | 0.0 | 4.8 | 0.00 | 0.00 | 0.00 | 75 | 1013.1 |
| 20260508060528 | 6 | 265 | 3.2 | 6.4 | 0.00 | 0.00 | 0.00 | 75 | 1013.2 |
| 20260508060034 | 6 | 265 | 3.2 | 6.4 | 0.00 | 0.00 | 0.00 | 75 | 1013.3 |
| 20260508055529 | 6 | 265 | 1.6 | 6.4 | 0.00 | 0.00 | 0.00 | 73 | 1013.2 |
| 20260508055027 | 6 | 265 | 1.6 | 6.4 | 0.00 | 0.00 | 0.00 | 73 | 1013.1 |
| 20260508054529 | 6 | 265 | 0.0 | 0.0 | 0.00 | 0.00 | 0.00 | 73 | 1013.4 |
| 20260508054025 | 6 | 265 | 0.0 | 0.0 | 0.00 | 0.00 | 0.00 | 73 | 1013.4 |
| 20260508053525 | 6 | 265 | 0.0 | 0.0 | 0.00 | 0.00 | 0.00 | 74 | 1013.5 |
| 20260508053025 | 6 | 265 | 0.0 | 0.0 | 0.00 | 0.00 | 0.00 | 76 | 1013.6 |
| 20260508052529 | 6 | 265 | 0.0 | 0.0 | 0.00 | 0.00 | 0.00 | 77 | 1013.6 |
| 20260508052022 | 6 | 265 | 0.0 | 0.0 | 0.00 | 0.00 | 0.00 | 75 | 1013.5 |
| 20260508051522 | 6 | 265 | 0.0 | 0.0 | 0.00 | 0.00 | 0.00 | 72 | 1013.5 |
| 20260508051020 | 6 | 265 | 0.0 | 0.0 | 0.00 | 0.00 | 0.00 | 70 | 1013.5 |
| 20260508050518 | 7 | 265 | 0.0 | 0.0 | 0.00 | 0.00 | 0.00 | 69 | 1013.5 |
| 20260508050018 | 7 | 265 | 0.0 | 0.0 | 0.00 | 0.00 | 0.00 | 67 | 1013.5 |
| 20260508045517 | 7 | 265 | 0.0 | 0.0 | 0.00 | 0.00 | 0.00 | 67 | 1013.6 |
| 20260508045017 | 7 | 265 | 0.0 | 3.2 | 0.00 | 0.00 | 0.00 | 67 | 1013.7 |
| 20260508044521 | 7 | 265 | 0.0 | 4.8 | 0.00 | 0.00 | 0.00 | 68 | 1013.8 |
| 20260508044016 | 7 | 265 | 1.6 | 4.8 | 0.00 | 0.00 | 0.00 | 68 | 1013.8 |
| 20260508043514 | 7 | 265 | 3.2 | 4.8 | 0.00 | 0.00 | 0.00 | 66 | 1013.8 |
| 20260508043014 | 8 | 265 | 3.2 | 4.8 | 0.00 | 0.00 | 0.00 | 63 | 1013.8 |
| 20260508042518 | 8 | 265 | 1.6 | 6.4 | 0.00 | 0.00 | 0.00 | 63 | 1013.8 |
| 20260508042012 | 8 | 265 | 3.2 | 6.4 | 0.00 | 0.00 | 0.00 | 63 | 1013.7 |
| 20260508041511 | 8 | 265 | 3.2 | 8.0 | 0.00 | 0.00 | 0.00 | 63 | 1013.7 |
| 20260508041011 | 7 | 265 | 3.2 | 8.0 | 0.00 | 0.00 | 0.00 | 63 | 1013.7 |
| 20260508040510 | 7 | 277 | 4.8 | 6.4 | 0.00 | 0.00 | 0.00 | 63 | 1013.6 |
| 20260508040008 | 7 | 277 | 1.6 | 4.8 | 0.00 | 0.00 | 0.00 | 63 | 1013.6 |
| 20260508035510 | 7 | 277 | 1.6 | 6.4 | 0.00 | 0.00 | 0.00 | 63 | 1013.5 |
| 20260508035008 | 7 | 277 | 3.2 | 6.4 | 0.00 | 0.00 | 0.00 | 62 | 1013.5 |
| 20260508034508 | 7 | 277 | 3.2 | 6.4 | 0.00 | 0.00 | 0.00 | 62 | 1013.5 |
| 20260508034009 | 7 | 277 | 3.2 | 6.4 | 0.00 | 0.00 | 0.00 | 62 | 1013.4 |
| 20260508033508 | 7 | 277 | 3.2 | 6.4 | 0.00 | 0.00 | 0.00 | 61 | 1013.5 |
| 20260508033008 | 7 | 277 | 1.6 | 4.8 | 0.00 | 0.00 | 0.00 | 62 | 1013.5 |
| 20260508032510 | 7 | 277 | 1.6 | 4.8 | 0.00 | 0.00 | 0.00 | 62 | 1013.5 |
| 20260508032007 | 7 | 277 | 0.0 | 4.8 | 0.00 | 0.00 | 0.00 | 62 | 1013.6 |
| 20260508031508 | 7 | 277 | 1.6 | 4.8 | 0.00 | 0.00 | 0.00 | 62 | 1013.6 |
| 20260508031008 | 7 | 277 | 0.0 | 0.0 | 0.00 | 0.00 | 0.00 | 62 | 1013.5 |
| 20260508030510 | 7 | 277 | 0.0 | 0.0 | 0.00 | 0.00 | 0.00 | 62 | 1013.5 |
| 20260508030007 | 7 | 277 | 0.0 | 0.0 | 0.00 | 0.00 | 0.00 | 62 | 1013.5 |
| 20260508025507 | 7 | 277 | 0.0 | 1.6 | 0.00 | 0.00 | 0.00 | 61 | 1013.4 |
| 20260508025006 | 7 | 277 | 0.0 | 3.2 | 0.00 | 0.00 | 0.00 | 61 | 1013.5 |
| 20260508024506 | 7 | 277 | 0.0 | 3.2 | 0.00 | 0.00 | 0.00 | 60 | 1013.5 |
| 20260508024006 | 7 | 277 | 0.0 | 3.2 | 0.00 | 0.00 | 0.00 | 60 | 1013.6 |
| 20260508023506 | 7 | 277 | 1.6 | 3.2 | 0.00 | 0.00 | 0.00 | 59 | 1013.6 |
| 20260508023008 | 7 | 277 | 0.0 | 3.2 | 0.00 | 0.00 | 0.00 | 59 | 1013.5 |
| 20260508022506 | 7 | 277 | 0.0 | 3.2 | 0.00 | 0.00 | 0.00 | 59 | 1013.5 |
| 20260508022006 | 8 | 277 | 0.0 | 3.2 | 0.00 | 0.00 | 0.00 | 59 | 1013.4 |
| 20260508021505 | 8 | 277 | 0.0 | 1.6 | 0.00 | 0.00 | 0.00 | 58 | 1013.4 |
| 20260508021005 | 8 | 277 | 0.0 | 4.8 | 0.00 | 0.00 | 0.00 | 57 | 1013.4 |
| 20260508020504 | 8 | 277 | 0.0 | 6.4 | 0.00 | 0.00 | 0.00 | 56 | 1013.4 |
| 20260508020006 | 8 | 277 | 3.2 | 4.8 | 0.00 | 0.00 | 0.00 | 54 | 1013.5 |
| 20260508015504 | 8 | 277 | 1.6 | 4.8 | 0.00 | 0.00 | 0.00 | 54 | 1013.4 |
| 20260508015004 | 8 | 277 | 1.6 | 4.8 | 0.00 | 0.00 | 0.00 | 54 | 1013.5 |
| 20260508014508 | 8 | 277 | 1.6 | 4.8 | 0.00 | 0.00 | 0.00 | 55 | 1013.4 |
| 20260508014004 | 9 | 277 | 3.2 | 6.4 | 0.00 | 0.00 | 0.00 | 54 | 1013.4 |
| 20260508013503 | 9 | 277 | 3.2 | 6.4 | 0.00 | 0.00 | 0.00 | 54 | 1013.3 |
| 20260508013003 | 9 | 284 | 3.2 | 6.4 | 0.00 | 0.00 | 0.00 | 53 | 1013.2 |
| 20260508012506 | 9 | 288 | 1.6 | 6.4 | 0.00 | 0.00 | 0.00 | 53 | 1013.1 |
| 20260508012003 | 10 | 288 | 1.6 | 6.4 | 0.00 | 0.00 | 0.00 | 52 | 1013.0 |
| 20260508011502 | 10 | 288 | 1.6 | 4.8 | 0.00 | 0.00 | 0.00 | 52 | 1013.0 |
| 20260508011002 | 10 | 288 | 1.6 | 6.4 | 0.00 | 0.00 | 0.00 | 52 | 1013.0 |
| 20260508010502 | 10 | 288 | 1.6 | 8.0 | 0.00 | 0.00 | 0.00 | 51 | 1012.9 |
| 20260508010002 | 10 | 289 | 1.6 | 8.0 | 0.00 | 0.00 | 0.00 | 50 | 1013.0 |
| 20260508005502 | 10 | 286 | 3.2 | 6.4 | 0.00 | 0.00 | 0.00 | 50 | 1012.9 |
| 20260508005005 | 10 | 286 | 1.6 | 6.4 | 0.00 | 0.00 | 0.00 | 50 | 1012.9 |
| 20260508004502 | 10 | 285 | 3.2 | 8.0 | 0.00 | 0.00 | 0.00 | 50 | 1012.8 |
| 20260508004005 | 10 | 286 | 3.2 | 6.4 | 0.00 | 0.00 | 0.00 | 49 | 1012.8 |
| 20260508003503 | 10 | 286 | 1.6 | 6.4 | 0.00 | 0.00 | 0.00 | 49 | 1012.8 |
| 20260508003002 | 10 | 286 | 1.6 | 6.4 | 0.00 | 0.00 | 0.00 | 49 | 1012.7 |
| 20260508002504 | 10 | 288 | 1.6 | 6.4 | 0.00 | 0.00 | 0.00 | 49 | 1012.7 |
| 20260508002001 | 10 | 288 | 0.0 | 11.3 | 0.00 | 0.00 | 0.00 | 48 | 1012.7 |
| 20260508001600 | 10 | 293 | 3.2 | 12.9 | 0.00 | 0.00 | 0.00 | 48 | 1012.7 |
| 20260508001100 | 11 | 292 | 6.4 | 12.9 | 0.00 | 0.00 | 0.00 | 48 | 1012.7 |
| 20260508000601 | 11 | 277 | 3.2 | 16.1 | 0.00 | 0.00 | 0.00 | 48 | 1012.6 |
| 20260508000100 | 11 | 319 | 4.8 | 16.1 | 0.00 | 0.00 | 0.00 | 48 | 1012.5 |
| 20260507235600 | 11 | 295 | 3.2 | 17.7 | 0.00 | 0.00 | 0.00 | 48 | 1012.5 |
| 20260507235059 | 11 | 265 | 9.7 | 17.7 | 0.00 | 0.00 | 0.00 | 47 | 1012.4 |
| 20260507234600 | 11 | 263 | 6.4 | 16.1 | 0.00 | 0.00 | 0.00 | 48 | 1012.4 |
| 20260507234502 | 11 | 238 | 6.4 | 16.1 | 0.00 | 0.00 | 0.00 | 47 | 1012.3 |
| 20260507234059 | 11 | 263 | 8.0 | 17.7 | 0.00 | 0.00 | 0.00 | 47 | 1012.3 |
| 20260507233559 | 11 | 252 | 6.4 | 17.7 | 0.00 | 0.00 | 0.00 | 45 | 1012.2 |
| 20260507233059 | 11 | 269 | 8.0 | 17.7 | 0.00 | 0.00 | 0.00 | 45 | 1012.2 |
| 20260507232600 | 12 | 264 | 3.2 | 14.5 | 0.00 | 0.00 | 0.00 | 46 | 1012.3 |
| 20260507232058 | 12 | 5 | 4.8 | 14.5 | 0.00 | 0.00 | 0.00 | 46 | 1012.3 |
| 20260507231600 | 12 | 298 | 3.2 | 12.9 | 0.00 | 0.00 | 0.00 | 46 | 1012.3 |
| 20260507231058 | 12 | 254 | 3.2 | 12.9 | 0.00 | 0.00 | 0.00 | 46 | 1012.3 |
| 20260507230602 | 11 | 284 | 1.6 | 11.3 | 0.00 | 0.00 | 0.00 | 47 | 1012.4 |
| 20260507230105 | 11 | 212 | 1.6 | 9.7 | 0.00 | 0.00 | 0.00 | 47 | 1012.4 |
| 20260507225557 | 11 | 9 | 1.6 | 16.1 | 0.00 | 0.00 | 0.00 | 48 | 1012.4 |
| 20260507225057 | 12 | 355 | 4.8 | 17.7 | 0.00 | 0.00 | 0.00 | 46 | 1012.4 |
| 20260507224600 | 12 | 142 | 8.0 | 17.7 | 0.00 | 0.00 | 0.00 | 45 | 1012.4 |
| 20260507224056 | 12 | 286 | 6.4 | 16.1 | 0.00 | 0.00 | 0.00 | 46 | 1012.4 |
| 20260507223558 | 12 | 11 | 4.8 | 14.5 | 0.00 | 0.00 | 0.00 | 47 | 1012.4 |
| 20260507223056 | 12 | 285 | 4.8 | 20.9 | 0.00 | 0.00 | 0.00 | 47 | 1012.4 |
| 20260507222658 | 12 | 334 | 4.8 | 20.9 | 0.00 | 0.00 | 0.00 | 45 | 1012.4 |
| 20260507222057 | 12 | 284 | 3.2 | 16.1 | 0.00 | 0.00 | 0.00 | 48 | 1012.4 |
| 20260507221555 | 12 | 317 | 6.4 | 20.9 | 0.00 | 0.00 | 0.00 | 47 | 1012.4 |
| 20260507221054 | 12 | 263 | 9.7 | 27.4 | 0.00 | 0.00 | 0.00 | 45 | 1012.4 |
| 20260507220555 | 12 | 281 | 9.7 | 24.1 | 0.00 | 0.00 | 0.00 | 46 | 1012.4 |
| 20260507220054 | 12 | 360 | 8.0 | 29.0 | 0.00 | 0.00 | 0.00 | 46 | 1012.3 |
| 20260507215554 | 12 | 293 | 11.3 | 29.0 | 0.00 | 0.00 | 0.00 | 46 | 1012.3 |
| 20260507215053 | 12 | 268 | 9.7 | 22.5 | 0.00 | 0.00 | 0.00 | 48 | 1012.1 |
| 20260507214603 | 12 | 195 | 9.7 | 22.5 | 0.00 | 0.00 | 0.00 | 47 | 1012.0 |
| 20260507214054 | 12 | 338 | 8.0 | 22.5 | 0.00 | 0.00 | 0.00 | 49 | 1012.0 |
| 20260507213554 | 12 | 17 | 6.4 | 17.7 | 0.00 | 0.00 | 0.00 | 49 | 1011.9 |
| 20260507213056 | 12 | 250 | 4.8 | 19.3 | 0.00 | 0.00 | 0.00 | 51 | 1012.0 |
| 20260507212554 | 12 | 277 | 8.0 | 27.4 | 0.00 | 0.00 | 0.00 | 49 | 1011.8 |
| 20260507212055 | 12 | 281 | 12.9 | 27.4 | 0.00 | 0.00 | 0.00 | 48 | 1011.7 |
| 20260507211556 | 12 | 277 | 17.7 | 25.7 | 0.00 | 0.00 | 0.00 | 47 | 1011.6 |
| 20260507211051 | 12 | 279 | 3.2 | 24.1 | 0.00 | 0.00 | 0.00 | 51 | 1011.5 |
| 20260507210552 | 12 | 333 | 9.7 | 24.1 | 0.00 | 0.00 | 0.00 | 47 | 1011.4 |
| 20260507210059 | 12 | 305 | 9.7 | 20.9 | 0.00 | 0.00 | 0.00 | 47 | 1011.4 |
| 20260507205551 | 12 | 22 | 3.2 | 24.1 | 0.00 | 0.00 | 0.00 | 50 | 1011.3 |
| 20260507205052 | 12 | 246 | 14.5 | 29.0 | 0.00 | 0.00 | 0.00 | 46 | 1011.3 |
| 20260507204551 | 12 | 260 | 11.3 | 27.4 | 0.00 | 0.00 | 0.00 | 46 | 1011.3 |
| 20260507204055 | 13 | 271 | 11.3 | 25.7 | 0.00 | 0.00 | 0.00 | 45 | 1011.4 |
| 20260507203551 | 13 | 23 | 6.4 | 17.7 | 0.00 | 0.00 | 0.00 | 47 | 1011.3 |
| 20260507203104 | 13 | 257 | 3.2 | 24.1 | 0.00 | 0.00 | 0.00 | 48 | 1011.3 |
| 20260507202549 | 13 | 284 | 12.9 | 24.1 | 0.00 | 0.00 | 0.00 | 47 | 1011.1 |
| 20260507202049 | 12 | 307 | 8.0 | 22.5 | 0.00 | 0.00 | 0.00 | 45 | 1011.1 |
| 20260507201557 | 13 | 277 | 9.7 | 22.5 | 0.00 | 0.00 | 0.00 | 46 | 1011.2 |
| 20260507201050 | 13 | 286 | 4.8 | 20.9 | 0.00 | 0.00 | 0.00 | 48 | 1011.2 |
| 20260507200550 | 12 | 340 | 3.2 | 20.9 | 0.00 | 0.00 | 0.00 | 45 | 1011.3 |
| 20260507200103 | 13 | 320 | 6.4 | 20.9 | 0.00 | 0.00 | 0.00 | 46 | 1011.3 |
| 20260507195547 | 13 | 326 | 9.7 | 24.1 | 0.00 | 0.00 | 0.00 | 48 | 1011.2 |
| 20260507195048 | 13 | 279 | 12.9 | 24.1 | 0.00 | 0.00 | 0.00 | 47 | 1011.3 |
| 20260507194546 | 13 | 280 | 4.8 | 22.5 | 0.00 | 0.00 | 0.00 | 47 | 1011.4 |
| 20260507194045 | 13 | 340 | 12.9 | 22.5 | 0.00 | 0.00 | 0.00 | 46 | 1011.4 |
| 20260507193544 | 13 | 304 | 9.7 | 22.5 | 0.00 | 0.00 | 0.00 | 48 | 1011.5 |
| 20260507193048 | 13 | 274 | 11.3 | 25.7 | 0.00 | 0.00 | 0.00 | 50 | 1011.5 |
| 20260507192543 | 12 | 285 | 9.7 | 25.7 | 0.00 | 0.00 | 0.00 | 51 | 1011.6 |
| 20260507192043 | 12 | 258 | 4.8 | 19.3 | 0.00 | 0.00 | 0.00 | 48 | 1011.6 |
| 20260507191543 | 12 | 269 | 9.7 | 19.3 | 0.00 | 0.00 | 0.00 | 49 | 1011.7 |
| 20260507191143 | 12 | 5 | 8.0 | 19.3 | 0.00 | 0.00 | 0.00 | 49 | 1011.7 |
| 20260507190546 | 12 | 341 | 4.8 | 16.1 | 0.00 | 0.00 | 0.00 | 49 | 1011.7 |
| 20260507190042 | 12 | 13 | 4.8 | 16.1 | 0.00 | 0.00 | 0.00 | 49 | 1011.7 |
| 20260507185546 | 12 | 284 | 8.0 | 24.1 | 0.00 | 0.00 | 0.00 | 47 | 1011.7 |
| 20260507185042 | 13 | 277 | 9.7 | 24.1 | 0.00 | 0.00 | 0.00 | 46 | 1011.7 |
| 20260507184547 | 13 | 264 | 8.0 | 27.4 | 0.00 | 0.00 | 0.00 | 49 | 1011.7 |
| 20260507184041 | 13 | 262 | 14.5 | 27.4 | 0.00 | 0.00 | 0.00 | 50 | 1011.6 |
| 20260507183540 | 13 | 245 | 8.0 | 20.9 | 0.00 | 0.00 | 0.00 | 50 | 1011.6 |
| 20260507183046 | 13 | 294 | 12.9 | 24.1 | 0.00 | 0.00 | 0.00 | 50 | 1011.6 |
| 20260507182539 | 12 | 270 | 11.3 | 24.1 | 0.00 | 0.00 | 0.00 | 48 | 1011.6 |
| 20260507182037 | 12 | 59 | 3.2 | 19.3 | 0.00 | 0.00 | 0.00 | 49 | 1011.7 |
| 20260507181537 | 12 | 294 | 6.4 | 22.5 | 0.00 | 0.00 | 0.00 | 51 | 1011.7 |
| 20260507181035 | 12 | 273 | 8.0 | 20.9 | 0.00 | 0.00 | 0.00 | 49 | 1011.8 |
| 20260507180537 | 12 | 281 | 12.9 | 25.7 | 0.00 | 0.00 | 0.00 | 49 | 1011.8 |
| 20260507180038 | 12 | 294 | 9.7 | 25.7 | 0.00 | 0.00 | 0.00 | 50 | 1011.9 |
| 20260507175533 | 12 | 293 | 4.8 | 24.1 | 0.00 | 0.00 | 0.00 | 49 | 1012.0 |
| 20260507175033 | 12 | 298 | 12.9 | 24.1 | 0.00 | 0.00 | 0.00 | 46 | 1012.0 |
| 20260507174530 | 12 | 277 | 11.3 | 19.3 | 0.00 | 0.00 | 0.00 | 50 | 1012.1 |
| 20260507174032 | 12 | 281 | 6.4 | 19.3 | 0.00 | 0.00 | 0.00 | 49 | 1012.1 |
| 20260507173531 | 12 | 290 | 6.4 | 17.7 | 0.00 | 0.00 | 0.00 | 48 | 1012.1 |
| 20260507173032 | 12 | 313 | 6.4 | 17.7 | 0.00 | 0.00 | 0.00 | 48 | 1012.1 |
| 20260507172529 | 12 | 281 | 9.7 | 22.5 | 0.00 | 0.00 | 0.00 | 47 | 1012.2 |
| 20260507172027 | 12 | 288 | 8.0 | 24.1 | 0.00 | 0.00 | 0.00 | 49 | 1012.2 |
| 20260507171527 | 12 | 269 | 14.5 | 24.1 | 0.00 | 0.00 | 0.00 | 49 | 1012.2 |
| 20260507171026 | 12 | 272 | 8.0 | 24.1 | 0.00 | 0.00 | 0.00 | 51 | 1012.3 |
| 20260507170526 | 12 | 253 | 11.3 | 24.1 | 0.00 | 0.00 | 0.00 | 49 | 1012.4 |
| 20260507170025 | 12 | 276 | 4.8 | 19.3 | 0.00 | 0.00 | 0.00 | 53 | 1012.4 |
| 20260507165525 | 12 | 244 | 9.7 | 22.5 | 0.00 | 0.00 | 0.00 | 48 | 1012.4 |
| 20260507165024 | 12 | 292 | 8.0 | 24.1 | 0.00 | 0.00 | 0.00 | 51 | 1012.5 |
| 20260507164526 | 12 | 290 | 11.3 | 24.1 | 0.00 | 0.00 | 0.00 | 50 | 1012.4 |
| 20260507164023 | 12 | 215 | 8.0 | 24.1 | 0.00 | 0.00 | 0.00 | 52 | 1012.5 |
| 20260507163522 | 11 | 261 | 9.7 | 29.0 | 0.00 | 0.00 | 0.00 | 48 | 1012.4 |
| 20260507163022 | 12 | 211 | 11.3 | 29.0 | 0.00 | 0.00 | 0.00 | 48 | 1012.5 |
| 20260507162519 | 12 | 274 | 8.0 | 19.3 | 0.00 | 0.00 | 0.00 | 51 | 1012.4 |
| 20260507162017 | 11 | 350 | 4.8 | 20.9 | 0.00 | 0.00 | 0.00 | 52 | 1012.5 |
| 20260507161520 | 11 | 257 | 8.0 | 17.7 | 0.00 | 0.00 | 0.00 | 49 | 1012.5 |
| 20260507161016 | 11 | 269 | 11.3 | 19.3 | 0.00 | 0.00 | 0.00 | 48 | 1012.5 |
| 20260507160515 | 11 | 313 | 9.7 | 24.1 | 0.00 | 0.00 | 0.00 | 47 | 1012.5 |
| 20260507160013 | 11 | 276 | 9.7 | 24.1 | 0.00 | 0.00 | 0.00 | 47 | 1012.4 |
| 20260507155512 | 11 | 273 | 11.3 | 24.1 | 0.00 | 0.00 | 0.00 | 51 | 1012.4 |
| 20260507155012 | 11 | 242 | 9.7 | 24.1 | 0.00 | 0.00 | 0.00 | 49 | 1012.5 |
| 20260507154512 | 11 | 311 | 11.3 | 20.9 | 0.00 | 0.00 | 0.00 | 49 | 1012.5 |
| 20260507154017 | 11 | 248 | 8.0 | 24.1 | 0.00 | 0.00 | 0.00 | 50 | 1012.5 |
| 20260507153510 | 11 | 252 | 16.1 | 24.1 | 0.00 | 0.00 | 0.00 | 49 | 1012.6 |
| 20260507153010 | 11 | 279 | 12.9 | 25.7 | 0.00 | 0.00 | 0.00 | 51 | 1012.6 |
| 20260507152513 | 11 | 288 | 11.3 | 25.7 | 0.00 | 0.00 | 0.00 | 52 | 1012.6 |
| 20260507152008 | 11 | 248 | 6.4 | 20.9 | 0.00 | 0.00 | 0.00 | 51 | 1012.6 |
| 20260507151508 | 11 | 265 | 8.0 | 24.1 | 0.00 | 0.00 | 0.00 | 54 | 1012.6 |
| 20260507151007 | 11 | 272 | 12.9 | 24.1 | 0.00 | 0.00 | 0.00 | 52 | 1012.7 |
| 20260507150508 | 11 | 262 | 9.7 | 19.3 | 0.00 | 0.00 | 0.00 | 52 | 1012.7 |
| 20260507150010 | 11 | 281 | 9.7 | 20.9 | 0.00 | 0.00 | 0.00 | 54 | 1012.7 |
| 20260507145504 | 11 | 257 | 8.0 | 20.9 | 0.00 | 0.00 | 0.00 | 54 | 1012.8 |
| 20260507145003 | 11 | 275 | 8.0 | 17.7 | 0.00 | 0.00 | 0.00 | 57 | 1012.8 |
| 20260507144508 | 10 | 283 | 6.4 | 20.9 | 0.00 | 0.00 | 0.00 | 57 | 1012.9 |
| 20260507144001 | 10 | 227 | 11.3 | 20.9 | 0.00 | 0.00 | 0.00 | 55 | 1013.0 |
| 20260507143600 | 10 | 219 | 8.0 | 17.7 | 0.00 | 0.00 | 0.00 | 57 | 1012.9 |
| 20260507143112 | 10 | 284 | 11.3 | 17.7 | 0.00 | 0.00 | 0.00 | 58 | 1012.8 |
| 20260507142600 | 10 | 295 | 4.8 | 16.1 | 0.00 | 0.00 | 0.00 | 61 | 1013.0 |
| 20260507142059 | 10 | 238 | 8.0 | 16.1 | 0.00 | 0.00 | 0.00 | 60 | 1012.9 |
| 20260507141603 | 10 | 293 | 6.4 | 19.3 | 0.00 | 0.00 | 0.00 | 60 | 1013.0 |
| 20260507141101 | 10 | 306 | 9.7 | 19.3 | 0.00 | 0.00 | 0.00 | 60 | 1013.1 |
| 20260507140601 | 10 | 280 | 6.4 | 17.7 | 0.00 | 0.00 | 0.00 | 64 | 1013.2 |
| 20260507140057 | 10 | 269 | 8.0 | 16.1 | 0.00 | 0.00 | 0.00 | 65 | 1013.2 |
| 20260507135554 | 10 | 273 | 4.8 | 16.1 | 0.00 | 0.00 | 0.00 | 68 | 1013.3 |
| 20260507135054 | 9 | 269 | 8.0 | 17.7 | 0.00 | 0.00 | 0.00 | 68 | 1013.4 |
| 20260507134552 | 9 | 284 | 6.4 | 14.5 | 0.00 | 0.00 | 0.00 | 70 | 1013.4 |
| 20260507134050 | 8 | 269 | 4.8 | 16.1 | 0.00 | 0.00 | 0.00 | 72 | 1013.4 |
| 20260507133550 | 8 | 270 | 8.0 | 16.1 | 0.00 | 0.00 | 0.00 | 72 | 1013.5 |
| 20260507133101 | 8 | 273 | 8.0 | 16.1 | 0.00 | 0.00 | 0.00 | 73 | 1013.4 |
| 20260507132546 | 8 | 260 | 8.0 | 17.7 | 0.00 | 0.00 | 0.00 | 73 | 1013.5 |
| 20260507132045 | 8 | 282 | 9.7 | 17.7 | 0.00 | 0.00 | 0.00 | 74 | 1013.4 |
| 20260507131550 | 8 | 260 | 9.7 | 17.7 | 0.00 | 0.00 | 0.00 | 75 | 1013.4 |
| 20260507131042 | 7 | 279 | 6.4 | 14.5 | 0.00 | 0.00 | 0.00 | 78 | 1013.4 |
| 20260507130540 | 7 | 284 | 8.0 | 14.5 | 0.00 | 0.00 | 0.00 | 77 | 1013.4 |
| 20260507130054 | 7 | 236 | 8.0 | 14.5 | 0.00 | 0.00 | 0.00 | 78 | 1013.4 |
| 20260507125538 | 7 | 259 | 6.4 | 17.7 | 0.00 | 0.00 | 0.00 | 78 | 1013.3 |
| 20260507125036 | 7 | 261 | 8.0 | 16.1 | 0.00 | 0.00 | 0.00 | 79 | 1013.5 |
| 20260507124535 | 7 | 292 | 4.8 | 14.5 | 0.00 | 0.00 | 0.00 | 81 | 1013.4 |
| 20260507124034 | 7 | 265 | 6.4 | 14.5 | 0.00 | 0.00 | 0.00 | 82 | 1013.3 |
| 20260507123534 | 7 | 278 | 8.0 | 14.5 | 0.00 | 0.00 | 0.00 | 83 | 1013.4 |
| 20260507123032 | 6 | 246 | 4.8 | 12.9 | 0.00 | 0.00 | 0.00 | 83 | 1013.3 |
| 20260507122529 | 6 | 250 | 3.2 | 12.9 | 0.00 | 0.00 | 0.00 | 84 | 1013.4 |
| 20260507122030 | 6 | 260 | 4.8 | 12.9 | 0.00 | 0.00 | 0.00 | 84 | 1013.4 |
| 20260507121526 | 6 | 246 | 6.4 | 14.5 | 0.00 | 0.00 | 0.00 | 84 | 1013.3 |
| 20260507121025 | 6 | 249 | 6.4 | 16.1 | 0.00 | 0.00 | 0.00 | 84 | 1013.4 |
| 20260507120523 | 6 | 258 | 8.0 | 16.1 | 0.00 | 0.00 | 0.00 | 85 | 1013.3 |
| 20260507120026 | 5 | 265 | 8.0 | 16.1 | 0.00 | 0.00 | 0.00 | 86 | 1013.4 |
| 20260507115520 | 5 | 262 | 4.8 | 14.5 | 0.00 | 0.05 | 0.00 | 87 | 1013.3 |
| 20260507115018 | 5 | 252 | 3.2 | 9.7 | 0.00 | 0.05 | 0.00 | 87 | 1013.3 |
| 20260507114517 | 5 | 265 | 3.2 | 9.7 | 0.00 | 0.05 | 0.00 | 88 | 1013.3 |
| 20260507114016 | 5 | 238 | 3.2 | 9.7 | 0.00 | 0.05 | 0.00 | 88 | 1013.3 |
| 20260507113517 | 5 | 243 | 4.8 | 8.0 | 0.00 | 0.05 | 0.00 | 88 | 1013.3 |
| 20260507113015 | 5 | 232 | 3.2 | 9.7 | 0.00 | 0.05 | 0.00 | 88 | 1013.2 |
| 20260507112514 | 4 | 225 | 3.2 | 6.4 | 0.00 | 0.05 | 0.00 | 88 | 1013.2 |
| 20260507112010 | 4 | 234 | 3.2 | 6.4 | 0.00 | 0.05 | 0.00 | 89 | 1013.1 |
| 20260507111509 | 4 | 248 | 3.2 | 6.4 | 0.00 | 0.05 | 0.00 | 89 | 1013.1 |
| 20260507111007 | 4 | 261 | 1.6 | 4.8 | 0.00 | 0.05 | 0.00 | 88 | 1013.1 |
| 20260507110505 | 4 | 261 | 1.6 | 4.8 | 0.00 | 0.05 | 0.00 | 88 | 1013.1 |